EW7146 Weather Reports


Display with metric or nautical units.
time (UTC)temp
F
wind
direction
speed
MPH
gust
MPH
rain 1hr
in
rain 24hr
in
rain mn
in
humidity
%
barometer
mb
20260901164453 63 90 0.0 2.0 0.00 0.00 0.00 56 1021.5
20260901163952 62 113 0.0 0.0 0.00 0.00 0.00 58 1021.5
20260901163451 62 217 0.0 0.0 0.00 0.00 0.00 59 1021.6
20260901162951 61 217 0.0 0.0 0.00 0.00 0.00 60 1021.5
20260901162456 61 217 0.0 0.0 0.00 0.00 0.00 60 1021.5
20260901161951 60 217 0.0 0.0 0.00 0.00 0.00 60 1021.5
20260901161450 60 188 0.0 0.0 0.00 0.00 0.00 64 1021.6
20260901160952 60 188 0.0 0.0 0.00 0.00 0.00 64 1021.5
20260901160450 59 188 0.0 0.0 0.00 0.00 0.00 66 1021.5
20260901155951 58 188 0.0 0.0 0.00 0.00 0.00 67 1021.6
20260901155455 57 172 0.0 0.0 0.00 0.00 0.00 70 1021.7
20260901154950 56 157 0.0 0.0 0.00 0.00 0.00 72 1021.8
20260901154450 55 157 0.0 0.0 0.00 0.00 0.00 75 1021.8
20260901153950 55 157 0.0 0.0 0.00 0.00 0.00 75 1021.9
20260901153450 54 157 0.0 0.0 0.00 0.00 0.00 77 1021.9
20260901152950 54 157 0.0 0.0 0.00 0.00 0.00 78 1022.0
20260901152451 54 157 0.0 0.0 0.00 0.00 0.00 77 1022.0
20260901151950 53 157 0.0 0.0 0.00 0.00 0.00 79 1022.1
20260901151719 52 154 0.0 0.0 0.00 0.00 0.00 81 1022.0
20260901150950 52 154 0.0 0.0 0.00 0.00 0.00 82 1022.1
20260901150709 51 152 0.0 0.0 0.00 0.00 0.00 82 1022.2
20260901145950 51 154 0.0 0.0 0.00 0.00 0.00 82 1022.2
20260901145450 51 154 0.0 0.0 0.00 0.00 0.00 81 1022.2
20260901144950 50 154 0.0 0.0 0.00 0.00 0.00 82 1022.2
20260901144450 49 152 0.0 0.0 0.00 0.00 0.00 85 1022.2
20260901143952 48 161 0.0 0.0 0.00 0.00 0.00 87 1022.4
20260901143449 47 161 0.0 0.0 0.00 0.00 0.00 87 1022.3
20260901142950 47 161 0.0 0.0 0.00 0.00 0.00 86 1022.3
20260901142448 47 161 0.0 0.0 0.00 0.00 0.00 87 1022.3
20260901141948 47 161 0.0 0.0 0.00 0.00 0.00 87 1022.2
20260901141448 47 161 0.0 0.0 0.00 0.00 0.00 86 1022.2
20260901140948 47 161 0.0 0.0 0.00 0.00 0.00 85 1022.2
20260901140449 47 161 0.0 0.0 0.00 0.00 0.00 85 1022.1
20260901135947 47 161 0.0 0.0 0.00 0.00 0.00 85 1022.2
20260901135449 47 161 0.0 0.0 0.00 0.00 0.00 84 1022.2
20260901134948 47 161 0.0 0.0 0.00 0.00 0.00 84 1022.1
20260901134449 47 161 0.0 0.0 0.00 0.00 0.00 85 1022.1
20260901133948 47 149 0.0 0.0 0.00 0.00 0.00 85 1022.1
20260901133447 46 151 0.0 0.0 0.00 0.00 0.00 85 1022.0
20260901132950 47 149 0.0 0.0 0.00 0.00 0.00 84 1022.0
20260901132447 47 149 0.0 0.0 0.00 0.00 0.00 83 1022.0
20260901131947 47 151 0.0 0.0 0.00 0.00 0.00 83 1022.0
20260901131447 47 149 0.0 0.0 0.00 0.00 0.00 83 1022.0
20260901130949 47 148 0.0 0.0 0.00 0.00 0.00 83 1022.0
20260901130447 47 145 0.0 0.0 0.00 0.00 0.00 83 1021.9
20260901130211 48 159 0.0 0.0 0.00 0.00 0.00 82 1021.9
20260901125446 49 213 0.0 2.0 0.00 0.00 0.00 80 1022.0
20260901124946 48 212 0.0 2.0 0.00 0.00 0.00 81 1022.0
20260901124458 48 157 0.0 0.0 0.00 0.00 0.00 82 1022.1
20260901123946 48 8 0.0 0.0 0.00 0.00 0.00 82 1022.0
20260901123447 49 234 0.0 0.0 0.00 0.00 0.00 81 1022.1
20260901122947 49 234 0.0 0.0 0.00 0.00 0.00 80 1022.1
20260901122447 49 219 0.0 0.0 0.00 0.00 0.00 82 1022.2
20260901121946 48 255 0.0 0.0 0.00 0.00 0.00 83 1022.2
20260901121446 47 255 0.0 0.0 0.00 0.00 0.00 84 1022.2
20260901120945 47 255 0.0 0.0 0.00 0.00 0.00 84 1022.2
20260901120445 47 255 0.0 0.0 0.00 0.00 0.00 83 1022.3
20260901115946 47 255 0.0 0.0 0.00 0.00 0.00 84 1022.3
20260901115445 47 255 0.0 0.0 0.00 0.00 0.00 85 1022.3
20260901114946 47 271 0.0 0.0 0.00 0.00 0.00 85 1022.5
20260901114445 47 271 0.0 0.0 0.00 0.00 0.00 86 1022.5
20260901113947 47 271 0.0 0.0 0.00 0.00 0.00 86 1022.5
20260901113444 47 271 0.0 0.0 0.00 0.00 0.00 86 1022.6
20260901112944 47 271 0.0 0.0 0.00 0.00 0.00 85 1022.6
20260901112444 48 235 0.0 0.0 0.00 0.00 0.00 84 1022.5
20260901111947 48 235 0.0 0.0 0.00 0.00 0.00 83 1022.6
20260901111444 48 235 0.0 0.0 0.00 0.00 0.00 83 1022.6
20260901110944 48 190 0.0 0.0 0.00 0.00 0.00 84 1022.6
20260901110711 48 190 0.0 0.0 0.00 0.00 0.00 83 1022.7
20260901105944 48 190 0.0 0.0 0.00 0.00 0.00 81 1022.9
20260901105712 49 190 0.0 0.0 0.00 0.00 0.00 81 1022.7
20260901104944 49 190 0.0 0.0 0.00 0.00 0.00 81 1022.7
20260901104711 49 190 0.0 0.0 0.00 0.00 0.00 80 1022.7
20260901104201 49 190 0.0 0.0 0.00 0.00 0.00 80 1022.9
20260901103443 49 190 0.0 0.0 0.00 0.00 0.00 80 1022.9
20260901102943 50 190 0.0 0.0 0.00 0.00 0.00 79 1022.7
20260901102712 50 190 0.0 0.0 0.00 0.00 0.00 78 1022.7
20260901101944 51 190 0.0 0.0 0.00 0.00 0.00 77 1022.7
20260901101443 51 190 0.0 0.0 0.00 0.00 0.00 75 1022.7
20260901100944 51 190 0.0 0.0 0.00 0.00 0.00 76 1022.7
20260901100442 51 231 0.0 0.0 0.00 0.00 0.00 77 1022.6
20260901095945 51 231 0.0 0.0 0.00 0.00 0.00 75 1022.7
20260901095709 51 231 0.0 0.0 0.00 0.00 0.00 76 1022.7
20260901094942 51 231 0.0 0.0 0.00 0.00 0.00 78 1022.7
20260901094443 51 231 0.0 0.0 0.00 0.00 0.00 76 1022.5
20260901093942 51 231 0.0 0.0 0.00 0.00 0.00 74 1022.6
20260901093443 51 230 0.0 0.0 0.00 0.00 0.00 77 1022.6
20260901092942 51 230 0.0 0.0 0.00 0.00 0.00 76 1022.6
20260901092443 51 230 0.0 0.0 0.00 0.00 0.00 75 1022.6
20260901091941 51 231 0.0 0.0 0.00 0.00 0.00 77 1022.7
20260901091441 51 231 0.0 0.0 0.00 0.00 0.00 78 1022.6
20260901090942 52 223 0.0 0.0 0.00 0.00 0.00 75 1022.6
20260901090440 52 223 0.0 0.0 0.00 0.00 0.00 74 1022.6
20260901085942 52 223 0.0 0.0 0.00 0.00 0.00 74 1022.7
20260901085440 52 228 0.0 0.0 0.00 0.00 0.00 76 1022.6
20260901084943 52 228 0.0 0.0 0.00 0.00 0.00 76 1022.6
20260901084706 53 228 0.0 0.0 0.00 0.00 0.00 74 1022.5
20260901083942 53 228 0.0 0.0 0.00 0.00 0.00 73 1022.7
20260901083440 53 216 0.0 0.0 0.00 0.00 0.00 76 1022.7
20260901082941 54 216 0.0 0.0 0.00 0.00 0.00 74 1022.6
20260901082932 55 216 0.0 0.0 0.00 0.00 0.00 67 1022.7
20260901081940 55 216 0.0 0.0 0.00 0.00 0.00 66 1022.7
20260901081441 55 216 0.0 0.0 0.00 0.00 0.00 67 1022.7
20260901080940 56 216 0.0 0.0 0.00 0.00 0.00 66 1022.7
20260901080932 56 216 0.0 0.0 0.00 0.00 0.00 65 1022.7
20260901080200 56 216 0.0 0.0 0.00 0.00 0.00 65 1022.7
20260901075442 56 216 0.0 0.0 0.00 0.00 0.00 65 1022.9
20260901074939 56 216 0.0 0.0 0.00 0.00 0.00 66 1022.9
20260901074439 56 216 0.0 0.0 0.00 0.00 0.00 66 1022.7
20260901073940 56 231 0.0 0.0 0.00 0.00 0.00 65 1022.7
20260901073439 56 245 0.0 0.0 0.00 0.00 0.00 64 1022.6
20260901072941 56 245 0.0 0.0 0.00 0.00 0.00 65 1022.7
20260901072704 56 245 0.0 0.0 0.00 0.00 0.00 64 1022.7
20260901071938 56 245 0.0 0.0 0.00 0.00 0.00 65 1022.7
20260901071925 55 223 0.0 0.0 0.00 0.00 0.00 66 1022.7
20260901070940 55 223 0.0 0.0 0.00 0.00 0.00 68 1022.7
20260901070439 55 237 0.0 0.0 0.00 0.00 0.00 71 1022.6
20260901065938 55 237 0.0 0.0 0.00 0.00 0.00 71 1022.7
20260901065439 56 237 0.0 0.0 0.00 0.00 0.00 67 1022.7
20260901064938 56 237 0.0 0.0 0.00 0.00 0.00 69 1022.7
20260901064440 56 251 0.0 0.0 0.00 0.00 0.00 69 1022.9
20260901063937 57 251 0.0 0.0 0.00 0.00 0.00 66 1022.7
20260901063439 58 251 0.0 0.0 0.00 0.00 0.00 63 1022.9
20260901062937 58 248 0.0 0.0 0.00 0.00 0.00 62 1022.9
20260901062439 58 248 0.0 0.0 0.00 0.00 0.00 64 1023.0
20260901061938 58 248 0.0 0.0 0.00 0.00 0.00 63 1022.9
20260901061437 58 248 0.0 0.0 0.00 0.00 0.00 62 1023.0
20260901061208 58 248 0.0 0.0 0.00 0.00 0.00 61 1022.9
20260901060437 58 248 0.0 0.0 0.00 0.00 0.00 61 1023.0
20260901055943 57 237 0.0 0.0 0.00 0.00 0.00 62 1023.0
20260901055437 56 252 0.0 0.0 0.00 0.00 0.00 64 1023.0
20260901054938 56 252 0.0 0.0 0.00 0.00 0.00 67 1023.0
20260901054653 56 252 0.0 0.0 0.00 0.00 0.00 72 1023.0
20260901053938 56 252 0.0 0.0 0.00 0.00 0.00 71 1023.0
20260901053437 56 252 0.0 0.0 0.00 0.00 0.00 69 1023.0
20260901052936 56 252 0.0 0.0 0.00 0.00 0.00 74 1023.0
20260901052445 56 252 0.0 0.0 0.00 0.00 0.00 74 1023.1
20260901051936 57 252 0.0 0.0 0.00 0.00 0.00 73 1023.0
20260901051438 57 252 0.0 0.0 0.00 0.00 0.00 70 1023.1
20260901050935 57 252 0.0 0.0 0.00 0.00 0.00 69 1023.1
20260901050701 57 252 0.0 0.0 0.00 0.00 0.00 72 1023.0
20260901045935 58 252 0.0 0.0 0.00 0.00 0.00 70 1023.1
20260901045435 58 252 0.0 0.0 0.00 0.00 0.00 66 1023.1
20260901045202 58 252 0.0 0.0 0.00 0.00 0.00 71 1023.1
20260901044435 58 252 0.0 0.0 0.00 0.00 0.00 72 1023.1
20260901044207 58 254 0.0 0.0 0.00 0.00 0.00 72 1023.1
20260901043701 59 252 0.0 0.0 0.00 0.00 0.00 70 1023.1
20260901043157 59 254 0.0 0.0 0.00 0.00 0.00 68 1023.1
20260901042435 60 203 0.0 0.0 0.00 0.00 0.00 66 1023.1
20260901041943 60 203 0.0 0.0 0.00 0.00 0.00 60 1023.0
20260901041434 60 199 0.0 2.0 0.00 0.00 0.00 63 1023.0
20260901040935 61 199 0.0 2.0 0.00 0.00 0.00 65 1023.1
20260901040436 62 290 0.0 3.0 0.00 0.00 0.00 63 1023.0
20260901035935 63 151 1.0 3.0 0.00 0.00 0.00 55 1022.9
20260901035435 64 251 0.0 3.0 0.00 0.00 0.00 55 1022.7
20260901034935 63 262 0.0 3.0 0.00 0.00 0.00 52 1022.7
20260901034436 63 247 0.0 1.0 0.00 0.00 0.00 55 1022.6
20260901033934 63 221 0.0 0.0 0.00 0.00 0.00 60 1022.6
20260901033435 64 221 0.0 0.0 0.00 0.00 0.00 55 1022.7
20260901032933 64 221 0.0 0.0 0.00 0.00 0.00 53 1022.5
20260901032916 65 221 0.0 3.0 0.00 0.00 0.00 55 1022.5
20260901031934 66 221 0.0 3.0 0.00 0.00 0.00 49 1022.4
20260901031434 66 234 0.0 2.0 0.00 0.00 0.00 49 1022.4
20260901030934 66 223 0.0 1.0 0.00 0.00 0.00 49 1022.4
20260901030434 67 195 0.0 0.0 0.00 0.00 0.00 54 1022.4
20260901025935 68 195 0.0 1.0 0.00 0.00 0.00 53 1022.3
20260901025651 69 195 0.0 5.0 0.00 0.00 0.00 45 1022.3
20260901024933 69 213 2.0 5.0 0.00 0.00 0.00 45 1022.3
20260901024432 70 186 2.0 4.0 0.00 0.00 0.00 44 1022.3
20260901023933 70 134 0.0 1.0 0.00 0.00 0.00 44 1022.3
20260901023433 70 134 0.0 1.0 0.00 0.00 0.00 43 1022.3
20260901022932 70 193 0.0 1.0 0.00 0.00 0.00 45 1022.4
20260901022433 71 138 0.0 0.0 0.00 0.00 0.00 46 1022.4
20260901021932 72 138 0.0 0.0 0.00 0.00 0.00 47 1022.4
20260901021432 73 138 0.0 0.0 0.00 0.00 0.00 46 1022.4
20260901020932 74 138 0.0 0.0 0.00 0.00 0.00 43 1022.3
20260901020432 75 138 0.0 0.0 0.00 0.00 0.00 39 1022.3
20260901015933 75 138 0.0 1.0 0.00 0.00 0.00 34 1022.3
20260901015428 76 138 0.0 2.0 0.00 0.00 0.00 34 1022.4
20260901014932 77 135 0.0 3.0 0.00 0.00 0.00 34 1022.4
20260901014432 77 107 1.0 5.0 0.00 0.00 0.00 33 1022.3
20260901013932 78 120 1.0 5.0 0.00 0.00 0.00 32 1022.4
20260901013432 78 118 2.0 5.0 0.00 0.00 0.00 32 1022.4
20260901012932 78 130 2.0 6.0 0.00 0.00 0.00 32 1022.4
20260901012431 78 113 4.0 6.0 0.00 0.00 0.00 32 1022.4
20260901011931 78 116 3.0 7.0 0.00 0.00 0.00 31 1022.4
20260901011703 78 154 3.0 7.0 0.00 0.00 0.00 31 1022.5
20260901010931 79 144 4.0 6.0 0.00 0.00 0.00 31 1022.5
20260901010431 79 135 4.0 6.0 0.00 0.00 0.00 31 1022.5
20260901005931 79 131 3.0 6.0 0.00 0.00 0.00 31 1022.6
20260901005653 79 124 3.0 6.0 0.00 0.00 0.00 31 1022.6
20260901004930 79 100 3.0 6.0 0.00 0.00 0.00 31 1022.7
20260901004431 79 116 3.0 10.0 0.00 0.00 0.00 31 1022.7
20260901003930 79 71 4.0 10.0 0.00 0.00 0.00 31 1022.9
20260901003653 79 106 4.0 9.0 0.00 0.00 0.00 31 1022.7
20260901002927 79 124 5.0 9.0 0.00 0.00 0.00 31 1022.7
20260901002426 80 65 2.0 10.0 0.00 0.00 0.00 31 1022.9
20260901001930 80 114 3.0 10.0 0.00 0.00 0.00 31 1022.9
20260901001429 80 58 2.0 7.0 0.00 0.00 0.00 31 1023.0
20260901000931 80 116 3.0 11.0 0.00 0.00 0.00 31 1023.1
20260901000652 80 80 4.0 11.0 0.00 0.00 0.00 31 1023.1
20260831235934 80 90 4.0 10.0 0.00 0.00 0.00 30 1023.3
20260831235428 80 65 3.0 10.0 0.00 0.00 0.00 31 1023.3
20260831234924 79 137 5.0 10.0 0.00 0.00 0.00 31 1023.3
20260831234424 79 80 2.0 10.0 0.00 0.00 0.00 32 1023.3
20260831233926 79 94 3.0 9.0 0.00 0.00 0.00 32 1023.4
20260831233430 79 62 5.0 9.0 0.00 0.00 0.00 32 1023.5
20260831232928 79 86 4.0 10.0 0.00 0.00 0.00 32 1023.5
20260831232429 79 92 4.0 10.0 0.00 0.00 0.00 32 1023.6
20260831231928 80 66 3.0 10.0 0.00 0.00 0.00 32 1023.5
20260831231428 80 73 3.0 10.0 0.00 0.00 0.00 32 1023.6
20260831231154 80 63 3.0 9.0 0.00 0.00 0.00 32 1023.6
20260831230423 80 85 2.0 10.0 0.00 0.00 0.00 32 1023.7
20260831225925 79 68 2.0 10.0 0.00 0.00 0.00 32 1023.7
20260831225428 79 99 2.0 10.0 0.00 0.00 0.00 33 1023.9
20260831224929 79 86 3.0 12.0 0.00 0.00 0.00 32 1024.0
20260831224427 79 114 6.0 12.0 0.00 0.00 0.00 32 1024.0
20260831223928 79 86 3.0 11.0 0.00 0.00 0.00 33 1024.0
20260831223430 79 100 4.0 11.0 0.00 0.00 0.00 33 1024.1
20260831222932 79 107 1.0 13.0 0.00 0.00 0.00 32 1024.1
20260831222424 79 92 4.0 13.0 0.00 0.00 0.00 32 1024.2
20260831221922 78 138 3.0 9.0 0.00 0.00 0.00 33 1024.2
20260831221642 79 85 3.0 13.0 0.00 0.00 0.00 33 1024.5
20260831221525 78 71 3.0 9.0 0.00 0.00 0.00 32 1024.4
20260831220650 78 127 3.0 13.0 0.00 0.00 0.00 34 1024.6
20260831215926 78 133 2.0 6.0 0.00 0.00 0.00 33 1024.7
20260831215426 78 123 3.0 13.0 0.00 0.00 0.00 33 1024.7
20260831214925 78 79 5.0 13.0 0.00 0.00 0.00 34 1024.8
20260831214427 78 8 4.0 7.0 0.00 0.00 0.00 33 1024.9
20260831213925 77 55 4.0 9.0 0.00 0.00 0.00 35 1024.9
20260831213426 77 140 4.0 9.0 0.00 0.00 0.00 35 1025.0
20260831212923 77 54 2.0 11.0 0.00 0.00 0.00 35 1025.1
20260831212650 77 124 5.0 11.0 0.00 0.00 0.00 35 1025.1
20260831211927 76 130 6.0 10.0 0.00 0.00 0.00 35 1025.1
20260831211425 77 78 4.0 10.0 0.00 0.00 0.00 35 1025.2
20260831210926 77 89 3.0 6.0 0.00 0.00 0.00 35 1025.2
20260831210425 76 80 2.0 9.0 0.00 0.00 0.00 35 1025.3
20260831205931 76 78 4.0 9.0 0.00 0.00 0.00 36 1025.4
20260831205422 76 120 3.0 11.0 0.00 0.00 0.00 36 1025.5
20260831204921 76 52 4.0 11.0 0.00 0.00 0.00 36 1025.6
20260831204644 76 141 4.0 9.0 0.00 0.00 0.00 36 1025.6
20260831203924 76 78 2.0 9.0 0.00 0.00 0.00 36 1025.7
20260831203426 76 131 2.0 9.0 0.00 0.00 0.00 37 1026.0
20260831202925 75 55 4.0 7.0 0.00 0.00 0.00 38 1026.0
20260831202429 74 55 4.0 9.0 0.00 0.00 0.00 38 1026.0
20260831202150 74 127 3.0 9.0 0.00 0.00 0.00 39 1026.1
20260831201424 74 76 2.0 10.0 0.00 0.00 0.00 38 1026.2
20260831201150 74 76 4.0 11.0 0.00 0.00 0.00 38 1026.3
20260831200424 74 72 4.0 11.0 0.00 0.00 0.00 38 1026.3
20260831200144 74 82 3.0 12.0 0.00 0.00 0.00 39 1026.5
20260831195424 73 79 3.0 12.0 0.00 0.00 0.00 39 1026.6
20260831194925 74 142 4.0 11.0 0.00 0.00 0.00 40 1026.6
20260831194423 73 76 4.0 11.0 0.00 0.00 0.00 39 1026.7
20260831193923 73 66 5.0 13.0 0.00 0.00 0.00 39 1026.7
20260831193423 73 76 6.0 13.0 0.00 0.00 0.00 40 1026.8
20260831192923 72 52 4.0 10.0 0.00 0.00 0.00 41 1026.9
20260831192421 72 85 4.0 10.0 0.00 0.00 0.00 40 1027.1
20260831191920 72 69 3.0 13.0 0.00 0.00 0.00 41 1027.1
20260831191421 72 149 5.0 13.0 0.00 0.00 0.00 40 1027.1
20260831190923 72 66 5.0 12.0 0.00 0.00 0.00 41 1027.1
20260831190423 72 127 6.0 10.0 0.00 0.00 0.00 41 1027.2
20260831185928 72 48 3.0 9.0 0.00 0.00 0.00 43 1027.3
20260831185422 71 168 3.0 6.0 0.00 0.00 0.00 42 1027.5
20260831184929 70 207 4.0 9.0 0.00 0.00 0.00 44 1027.6
20260831184922 71 118 2.0 7.0 0.00 0.00 0.00 43 1027.5
20260831184422 70 42 3.0 9.0 0.00 0.00 0.00 43 1027.6
20260831183421 70 96 3.0 6.0 0.00 0.00 0.00 44 1027.8
20260831182920 69 32 2.0 5.0 0.00 0.00 0.00 45 1027.9
20260831182421 69 49 2.0 5.0 0.00 0.00 0.00 45 1027.9
20260831181922 69 133 3.0 5.0 0.00 0.00 0.00 46 1028.0
20260831181421 69 47 2.0 4.0 0.00 0.00 0.00 46 1028.0
20260831181145 68 76 1.0 4.0 0.00 0.00 0.00 48 1027.9
20260831180643 67 103 2.0 4.0 0.00 0.00 0.00 47 1028.0
20260831175921 67 116 2.0 4.0 0.00 0.00 0.00 48 1028.1
20260831175421 67 93 0.0 4.0 0.00 0.00 0.00 48 1028.1
20260831174920 66 73 1.0 4.0 0.00 0.00 0.00 48 1028.1
20260831174422 66 96 1.0 3.0 0.00 0.00 0.00 48 1028.3
20260831173921 66 56 1.0 3.0 0.00 0.00 0.00 49 1028.3
20260831173421 65 133 1.0 4.0 0.00 0.00 0.00 51 1028.3
20260831172920 65 145 1.0 4.0 0.00 0.00 0.00 51 1028.3
20260831172421 65 107 1.0 3.0 0.00 0.00 0.00 50 1028.3
20260831171921 65 38 0.0 3.0 0.00 0.00 0.00 52 1028.4
20260831171419 65 49 0.0 2.0 0.00 0.00 0.00 52 1028.5
20260831170921 64 173 0.0 2.0 0.00 0.00 0.00 52 1028.5
20260831170645 63 272 0.0 0.0 0.00 0.00 0.00 54 1028.5
20260831165920 62 262 0.0 0.0 0.00 0.00 0.00 55 1028.5
20260831165419 62 39 0.0 0.0 0.00 0.00 0.00 55 1028.6
20260831164919 62 63 0.0 0.0 0.00 0.00 0.00 55 1028.7